Temp_Advection
nan nan nan nan nan nan nan nan nan nan nan nan nan nan nan nan nan nan nan nan nan nan nan nan nan nan nan nan nan nan nan nan nan nan nan nan nan nan nan nan nan nan nan nan nan nan nan nan nan
nan -0 -0 -0 -0 0 -0 -0 -0 -0 -0 0 -0 0 -0 -0 -0 -0 -0 0 0 0 -0 -0 -1 -0 -0 0 0 0 0 0 0 -0 -0 0 -0 -0 0 -0 0 0 0 0 0 -0 -0 -0 nan
nan -0 0 -0 -0 -0 -0 -0 0 0 0 0 -0 -0 -0 -0 -0 -0 -0 0 0 -0 -0 -0 -1 -0 -0 0 0 -0 0 0 0 -0 -0 -0 -0 -0 -0 -0 0 0 0 0 0 0 0 0 nan
nan -0 0 -0 -0 -1 -0 -0 0 0 -0 -0 -0 -0 -0 -0 0 -0 -0 0 -0 0 -0 -0 -0 -0 -0 -0 -0 -0 0 0 -0 -0 -0 -0 -0 -0 -0 0 -0 -0 0 0 0 0 0 0 nan
nan 0 0 -0 -0 -0 -1 -0 -0 -0 -0 -0 -0 -0 -0 -0 -0 0 -0 0 0 0 0 -0 -0 -0 -0 -0 -0 0 0 0 -0 -0 -0 -0 -0 0 0 0 0 -0 -0 -0 -0 -0 -0 -0 nan
nan 0 -0 -0 -1 -1 -1 -0 -0 -0 -0 -0 -0 -0 -0 -0 -0 0 0 -0 0 0 -0 0 -0 -0 -0 -0 -0 -0 -0 0 -0 -0 -0 -0 -0 -0 0 0 -0 0 -0 -0 -0 -0 -0 -0 nan
nan -0 -0 -0 -0 -1 -0 -0 -0 -0 -0 -0 0 -0 -0 -0 -0 -0 -0 0 0 0 0 0 0 0 -0 -0 -0 -0 0 0 0 -0 -0 -0 -0 -0 -0 0 -0 -0 0 0 0 0 0 -0 nan
nan -0 -0 -0 -0 -1 -1 -0 -0 -0 -0 -0 -0 -0 -0 -0 -0 -0 -0 -0 0 0 0 0 0 0 -0 0 -0 -0 0 0 0 -0 -0 0 -0 0 -0 0 0 -0 -0 0 0 0 -0 -0 nan
nan 0 -0 -1 -0 -1 -1 -0 0 0 0 -0 -0 -0 -0 -0 -0 -0 -0 -0 -0 -0 -0 0 0 0 0 0 0 0 0 -0 -0 -0 -0 -0 -0 -0 -0 -0 -0 -0 -0 -0 -0 -0 -0 -0 nan
nan -0 -1 -0 -0 -0 -1 -0 -0 0 -0 -0 -0 -0 0 0 -0 0 -0 0 -0 -0 0 0 0 0 0 0 0 0 -0 -0 -0 -0 -0 -0 -0 -0 0 -0 -0 -0 -0 -0 -0 -0 -0 -0 nan
nan -0 -0 -0 -1 -0 -0 -0 0 -0 -0 -0 -0 -0 -0 0 -0 -0 -0 -0 0 0 0 0 0 0 0 0 0 0 0 0 -0 -0 -0 -0 -0 -0 0 0 -0 -0 -0 -0 -0 -0 -0 -0 nan
nan -1 -1 -1 -1 -0 -0 -0 0 0 -0 -0 -0 -0 -0 -0 -0 -0 -0 0 0 0 0 0 0 0 0 0 0 0 0 0 0 0 0 0 0 0 0 0 0 -0 -0 -0 -0 -0 -0 -0 nan
nan -1 -1 -1 -0 -1 -0 0 -0 -0 -0 -0 -0 -0 -0 -0 -0 -0 0 0 0 0 0 0 0 0 0 0 0 0 0 0 0 0 0 0 0 0 0 0 0 0 -0 -0 -0 -0 0 -0 nan
nan -0 -1 -0 -1 -0 0 -0 -0 -0 -0 -0 -0 -0 -0 -0 -0 0 0 0 0 0 0 0 1 1 0 0 0 0 0 0 0 0 0 0 0 0 0 0 0 0 0 -0 -0 -0 -0 0 nan
nan -0 -0 -1 -0 -0 -0 0 -0 -1 -0 -0 -0 -0 -0 -0 -0 0 0 1 1 1 1 1 1 0 0 0 0 0 0 0 0 0 0 0 0 0 0 0 0 -0 -0 -0 -0 0 -0 -0 nan
nan -0 -0 -0 -1 -0 1 0 -1 -1 0 -0 -0 -0 0 0 0 0 0 1 1 1 1 0 0 0 0 0 0 0 0 0 0 0 0 0 0 0 0 0 0 -0 -0 -0 -0 -0 -0 -0 nan
nan -0 -0 -1 -0 0 0 -0 -1 -1 0 0 -1 -0 0 -0 0 0 1 1 1 1 0 0 0 1 0 0 0 0 0 0 0 0 0 0 0 0 -0 -0 -0 -0 -0 -0 0 -0 -0 -0 nan
nan 0 -0 -0 -0 0 -0 -1 -1 -1 0 -0 -1 -0 0 1 1 1 1 1 1 1 0 1 1 1 0 0 0 0 0 0 0 0 0 -0 -0 -0 -0 0 0 -0 -0 -0 -0 -0 -0 -0 nan
nan -0 -1 -1 -0 0 -0 -0 -1 -1 0 -0 -1 0 1 2 1 1 0 0 0 0 1 1 1 1 1 0 0 0 0 0 0 0 -0 -0 -0 -0 -0 -0 -0 -0 -0 -0 -0 -1 -1 -0 nan
nan 0 -1 -1 -1 -0 -0 -0 -1 -0 -0 -1 -1 1 0 0 0 0 0 0 0 0 0 0 1 1 1 1 1 1 1 0 0 0 0 0 -0 -0 -0 -0 -0 -0 -0 -0 -0 -1 -1 -1 nan
nan -0 -1 -1 -1 -0 -0 -1 -1 -1 -1 0 -0 1 1 0 0 0 0 0 0 0 0 0 0 0 1 0 0 0 -0 -0 0 0 0 -0 -0 -0 -0 -0 -0 -0 -0 -0 -0 -0 -1 -1 nan
nan -1 -0 -0 -0 -0 -0 -0 -1 -0 0 0 -0 2 2 1 0 -0 0 0 0 0 0 0 0 0 0 0 0 -0 -0 -0 0 0 0 -0 -0 -0 -0 -0 -0 -0 -0 -0 -0 -0 -0 -0 nan
nan -0 -0 -0 0 -0 -1 -0 -0 -0 -1 -0 1 1 2 1 1 0 0 0 0 1 0 0 0 0 0 0 0 0 0 0 0 0 0 -0 -0 -0 -0 -0 -0 -0 -0 -0 -0 -0 -0 -0 nan
nan -0 -0 -0 -0 -0 -1 -1 -0 -0 -0 0 1 1 1 1 1 1 1 1 1 1 1 0 0 0 0 0 0 0 0 0 0 0 0 -0 -0 -0 -0 -0 -0 -0 -0 -0 -0 -0 -0 -0 nan
nan 0 -0 -0 -0 -1 -0 -0 -1 -0 0 -0 -0 0 0 1 1 0 0 1 1 0 0 0 0 0 0 0 0 0 0 0 0 0 -0 -0 -0 -0 -0 -0 -0 -0 -0 -0 -0 -0 -0 -0 nan
nan 0 -0 -0 -0 -0 0 -0 -1 -0 -0 1 -0 -0 1 1 1 0 0 0 0 0 0 0 0 0 0 0 0 0 0 0 0 0 -0 -0 -0 -0 -0 -0 -0 -0 -0 -0 -0 -0 -0 -0 nan
nan -1 -1 0 -0 0 -0 -1 -0 -0 -0 1 0 0 1 1 1 0 0 0 0 0 0 1 0 0 0 0 0 0 0 0 0 -0 -0 -0 -0 -0 -0 -0 -0 -0 -0 -0 -0 -0 -0 -0 nan
nan -0 -0 -0 -0 0 -0 -0 0 0 -0 0 -0 -0 -0 0 0 0 0 0 0 0 1 1 1 0 0 0 0 0 0 0 0 -0 -0 -0 -0 -0 -0 -0 -0 -0 -0 -0 -0 -0 -1 -1 nan
nan 0 -0 -0 -0 -0 0 -0 -0 0 -0 -0 -0 -0 -1 -1 0 0 0 0 0 0 0 0 0 1 1 0 0 0 0 0 0 -0 -0 -0 -0 -0 -0 -0 -0 -0 -0 -0 -0 -0 -1 -1 nan
nan nan nan nan nan nan nan nan nan nan nan nan nan nan nan nan nan nan nan nan nan nan nan nan nan nan nan nan nan nan nan nan nan nan nan nan nan nan nan nan nan nan nan nan nan nan nan nan nan
Wind_Speed
15 14 16 8 4 4 3 6 1 8 3 2 5 1 3 4 3 2 9 7 2 4 7 7 13 11 9 8 5 3 3 5 4 4 6 8 8 3 4 3 2 4 5 4 2 6 9 5 7
14 13 9 4 3 2 5 3 7 5 4 5 8 3 3 1 6 12 9 5 1 5 6 7 14 11 10 8 8 6 5 2 3 1 5 5 7 5 1 7 6 6 8 6 2 3 7 10 11
13 9 5 2 2 4 4 0 3 7 14 5 5 6 3 3 8 9 7 8 4 4 7 8 12 12 12 10 9 6 3 3 1 2 7 6 6 2 0 6 8 7 9 9 6 3 3 4 7
8 5 4 1 9 11 5 7 2 2 7 10 9 5 5 8 3 6 8 9 4 3 5 4 6 11 12 11 7 5 2 3 0 3 7 8 4 4 4 4 7 9 11 9 9 6 4 4 5
7 5 0 2 7 8 6 4 3 3 2 3 5 2 4 5 4 5 10 7 4 5 3 2 6 9 12 10 6 2 3 2 1 5 8 9 7 5 5 6 8 11 8 8 9 9 6 5 5
4 3 1 4 7 9 8 6 5 2 5 11 1 3 3 5 4 7 13 9 7 5 4 5 8 8 10 7 5 3 3 1 1 4 9 7 7 7 6 5 7 7 7 7 7 8 7 8 7
4 1 5 5 7 8 5 3 6 3 3 4 7 3 5 4 5 8 12 11 9 9 7 6 8 8 9 5 4 3 3 2 1 2 7 5 5 5 5 4 6 7 8 8 8 7 7 7 8
8 3 5 5 8 11 6 5 2 4 3 7 5 3 5 5 5 6 10 9 12 10 8 6 6 7 6 4 3 1 2 3 3 1 1 1 4 3 0 2 4 5 7 8 8 8 8 9 10
15 3 8 10 9 11 18 4 4 4 2 4 9 15 8 4 5 4 4 7 11 12 10 8 6 6 5 3 3 1 4 2 1 2 4 6 4 2 1 4 6 9 9 8 8 8 9 10 10
8 5 9 4 9 7 21 9 4 1 2 5 13 11 9 6 2 3 5 5 9 10 12 11 10 7 5 6 4 3 3 1 1 3 3 5 2 2 5 8 9 7 8 7 8 8 10 11 12
7 10 5 8 23 24 15 6 4 1 3 7 10 14 6 6 4 6 9 13 11 10 11 12 14 12 10 10 7 6 2 1 1 1 2 4 3 5 7 5 6 8 8 9 10 11 12 12 15
10 17 19 20 30 25 7 11 5 9 9 12 17 21 18 14 12 13 9 9 11 14 13 12 11 17 16 14 12 7 4 2 1 2 3 4 6 4 3 4 6 8 9 11 12 12 12 13 14
15 15 21 27 31 32 27 17 15 12 16 15 20 24 22 19 20 17 14 12 11 10 15 16 15 16 18 16 11 8 8 6 8 7 8 9 8 8 7 7 5 5 6 8 9 11 14 16 14
12 16 22 29 25 24 19 13 14 12 15 16 22 27 23 24 21 22 18 19 14 13 19 19 19 18 17 19 15 10 12 10 9 9 8 9 9 9 9 6 3 6 7 9 12 15 14 15 15
13 13 15 20 19 17 21 17 14 27 22 24 31 31 27 28 15 18 22 21 18 17 20 20 18 16 18 15 18 13 12 11 9 6 5 4 3 5 6 5 3 6 10 13 14 14 13 12 14
5 6 14 7 14 13 16 21 9 26 16 26 33 35 27 17 17 16 17 18 20 19 20 21 20 19 17 15 15 14 14 15 12 10 8 6 5 5 5 4 5 8 11 10 9 11 13 15 17
4 8 7 10 8 7 9 15 11 26 22 30 32 27 25 18 14 15 16 16 19 22 24 22 21 22 20 18 21 18 18 16 13 12 8 7 7 8 5 5 5 4 6 8 11 14 17 20 21
13 7 6 7 6 10 14 18 11 19 21 28 27 22 18 21 18 14 11 11 12 15 14 13 15 24 26 26 25 22 18 17 15 13 10 7 6 4 1 1 4 7 10 13 15 17 17 19 21
5 8 11 6 9 10 18 18 20 21 25 19 20 21 16 25 20 12 11 11 11 10 12 15 19 24 26 27 27 25 21 16 15 11 7 7 6 3 3 6 9 12 14 16 18 19 20 19 22
13 14 20 15 14 11 14 19 23 17 16 25 26 27 24 27 22 17 15 16 16 15 17 20 24 24 25 23 21 19 17 14 12 11 9 6 4 4 6 10 13 16 17 17 18 19 18 18 19
15 16 16 15 14 16 10 16 23 15 26 28 32 32 31 36 29 25 21 21 21 20 20 21 21 22 20 18 18 17 17 16 13 11 8 5 4 6 9 13 16 18 18 18 17 17 18 20 20
16 13 15 17 11 10 3 8 16 17 14 9 24 24 36 36 31 31 28 24 23 24 22 22 23 22 16 13 15 16 16 16 12 9 6 3 4 7 12 15 18 19 19 17 16 16 17 19 22
18 5 11 12 14 14 19 8 7 8 20 19 17 22 37 40 37 34 30 26 24 24 24 24 24 23 21 19 16 16 16 14 11 7 3 1 5 9 14 18 20 20 18 17 17 17 18 20 21
2 1 12 8 9 12 20 14 6 8 20 20 13 30 36 40 37 34 29 26 27 27 27 24 23 22 19 18 16 15 14 12 10 7 2 3 8 12 15 18 19 18 17 17 18 19 20 21 22
5 4 3 6 6 13 10 13 15 5 11 13 16 31 38 42 42 37 32 30 29 28 27 25 23 23 21 19 18 16 13 11 8 5 1 5 9 13 17 20 18 16 16 17 19 21 23 24 25
13 15 7 7 8 8 10 8 7 19 8 19 32 40 42 43 41 36 32 31 30 28 27 26 24 23 21 19 18 15 12 9 5 2 3 7 11 15 18 18 16 16 17 19 21 23 25 27 27
10 13 25 6 5 5 5 8 4 2 8 17 25 33 34 41 41 35 31 30 30 28 26 25 24 22 20 18 16 14 10 6 2 1 6 10 13 16 17 16 15 17 19 21 24 26 28 28 28
13 15 10 5 5 5 9 5 5 6 10 15 18 25 30 38 38 33 31 31 29 27 25 23 20 19 18 17 14 11 8 4 1 4 8 12 15 16 15 15 16 18 21 24 27 28 28 29 30
9 4 8 3 7 4 5 5 5 13 15 17 17 28 34 40 38 34 32 29 29 27 25 23 21 19 18 16 13 10 6 3 3 7 10 13 15 15 15 16 18 21 24 26 28 28 30 31 30
10 12 13 7 10 5 4 3 3 9 9 13 18 27 34 39 37 34 32 31 30 28 25 23 21 19 17 15 12 9 6 3 5 9 12 14 14 14 15 18 21 23 26 27 28 30 31 30 33
Wind_Direction
312 324 333 340 30 66 257 261 238 330 37 56 12 345 221 324 254 185 143 250 195 135 153 153 151 160 153 145 175 211 285 326 343 5 118 167 182 204 320 324 2 323 348 339 324 189 190 209 235
309 325 342 320 93 350 273 311 34 313 323 21 16 9 72 40 88 137 149 216 205 131 136 137 155 158 150 160 183 213 273 318 353 74 130 128 186 187 258 44 36 36 15 13 333 238 236 260 268
305 320 298 118 179 200 235 224 98 344 355 47 23 357 54 42 124 159 146 184 207 145 133 118 151 158 154 178 200 234 260 333 347 154 124 111 130 162 114 21 19 5 4 360 2 323 292 290 273
333 325 231 125 264 263 253 272 147 21 343 11 16 42 85 14 197 151 146 165 194 163 123 125 154 164 169 187 216 201 322 344 132 158 156 135 153 193 232 279 342 346 353 9 15 9 354 341 333
299 259 252 251 256 270 274 251 142 106 296 327 344 36 84 71 84 131 132 163 208 168 167 170 179 177 177 188 196 232 311 337 129 161 169 167 177 183 233 258 307 329 355 22 24 25 17 356 352
269 213 146 227 259 276 303 268 118 93 325 295 87 94 93 129 171 156 145 175 238 212 190 197 183 186 182 186 198 228 259 295 107 177 189 192 186 193 226 247 281 335 354 1 358 357 355 355 352
197 65 218 234 260 290 284 319 128 95 337 353 344 79 138 172 116 147 155 173 216 235 227 195 189 181 189 182 195 208 240 250 226 167 212 223 200 209 216 261 297 325 341 344 344 343 339 338 340
246 159 243 228 250 275 273 232 160 147 232 316 346 139 193 177 132 149 176 187 215 238 233 202 201 196 196 193 166 145 312 305 265 171 91 278 221 210 165 300 320 333 328 325 333 334 333 335 337
247 232 230 225 231 252 285 263 211 169 159 317 293 292 243 182 119 119 160 207 210 227 245 233 216 199 188 196 220 300 322 328 36 120 82 71 93 106 353 15 345 333 324 324 330 329 336 338 345
202 210 233 214 228 240 262 257 237 163 354 294 299 359 188 134 140 252 260 255 230 233 235 236 236 237 227 225 231 284 317 8 121 89 74 63 59 15 334 329 321 325 331 333 337 334 337 339 342
245 240 262 252 258 269 276 267 217 67 285 282 286 309 310 266 280 276 266 257 257 257 233 225 225 231 237 236 245 262 246 163 88 89 4 7 332 317 292 300 311 328 333 340 335 335 341 342 338
256 250 247 260 270 274 262 284 248 220 239 282 293 290 297 291 281 274 258 247 256 229 237 231 223 215 224 227 231 230 226 299 257 234 287 271 260 261 282 294 307 319 329 336 342 338 333 324 320
248 251 251 245 245 259 267 255 256 248 262 267 276 277 276 276 277 262 248 254 250 230 223 225 226 226 219 223 227 212 207 236 217 215 224 237 235 246 257 270 285 313 318 312 312 310 307 305 299
280 270 267 255 261 259 266 252 244 252 251 262 268 267 269 273 279 251 235 237 238 227 224 222 230 230 219 216 213 197 193 201 215 207 234 255 251 248 256 263 278 274 295 291 286 290 287 291 292
292 277 266 254 253 252 274 265 241 254 258 264 259 262 264 275 246 220 227 228 228 216 208 211 211 216 219 214 204 193 204 196 197 206 207 236 240 244 245 245 264 276 281 285 284 284 294 301 299
284 268 254 265 252 253 238 260 258 254 245 257 261 264 259 210 210 220 227 231 215 209 199 204 209 208 205 204 190 188 193 189 181 186 194 179 170 205 223 218 258 268 274 284 296 300 305 307 307
252 269 282 269 240 243 242 266 247 255 252 259 262 271 231 202 219 230 235 236 231 227 226 225 220 208 190 188 182 190 196 197 184 180 178 196 225 233 215 242 254 282 306 310 312 316 319 318 315
231 231 243 242 239 243 260 262 265 248 247 240 265 241 206 196 209 216 225 211 202 211 220 207 183 179 184 187 185 186 184 189 191 200 209 221 200 202 208 353 342 329 326 324 322 324 326 327 324
289 280 281 286 244 225 238 245 256 253 248 248 248 233 209 181 185 188 180 175 179 186 180 172 164 172 183 182 184 188 192 196 201 212 180 149 134 110 37 358 344 336 334 333 329 328 329 332 332
245 268 271 288 272 271 252 239 241 239 230 235 241 247 186 164 172 170 164 164 165 160 162 162 172 176 185 190 193 198 194 188 177 152 142 125 99 46 5 355 349 345 340 336 334 335 338 342 349
231 233 251 258 299 291 279 272 252 243 233 230 234 240 194 180 171 164 163 170 165 162 162 161 162 171 176 178 179 174 165 155 151 143 138 119 65 17 4 356 350 346 342 340 340 340 342 343 345
239 239 257 265 278 261 341 269 250 230 229 208 224 215 191 177 168 164 167 172 174 167 166 163 163 169 173 175 166 157 156 153 148 150 138 103 38 3 354 351 347 344 341 339 340 341 342 340 338
252 246 280 273 253 279 272 256 262 198 228 230 221 191 185 177 172 171 174 176 173 169 170 171 167 164 160 158 160 158 154 154 150 151 149 21 3 358 352 347 343 339 338 338 337 338 339 339 335
241 342 282 274 269 253 244 245 245 207 218 225 206 168 166 166 167 167 168 169 167 165 163 163 163 159 160 162 161 165 165 159 160 166 187 358 356 353 348 340 336 336 336 337 337 336 334 333 328
158 146 253 220 218 242 201 235 254 219 231 187 160 163 161 166 165 165 168 170 169 168 167 166 169 161 167 171 169 169 170 167 171 161 80 1 349 344 339 339 339 338 337 334 332 331 329 327 325
194 192 208 200 210 250 174 219 234 246 263 159 157 156 157 160 167 169 171 171 170 168 167 167 169 166 169 173 173 173 173 173 168 141 2 347 341 339 339 337 335 334 333 331 328 327 326 325 322
194 206 210 303 283 195 204 235 311 60 106 128 139 146 153 160 168 170 172 174 173 173 170 172 171 170 171 176 179 176 177 177 170 1 347 340 337 337 336 334 334 334 331 329 327 326 325 324 322
228 179 179 179 257 165 207 198 197 177 149 143 148 152 155 162 168 170 175 174 175 176 174 176 177 177 177 181 181 181 184 187 236 333 334 336 336 334 333 335 333 331 330 329 327 326 325 324 323
187 195 207 239 235 232 157 233 209 175 162 158 162 162 160 165 172 174 175 176 178 180 180 180 183 185 185 187 187 191 196 215 300 328 336 337 334 333 334 334 333 332 331 329 327 327 328 326 324
182 182 194 191 222 205 126 293 1 160 164 158 162 162 164 170 172 175 176 177 180 184 185 188 187 190 193 192 194 199 211 254 318 333 337 335 335 336 333 333 333 331 328 328 329 330 328 325 322
Height
1524 1523 1520 1517 1526 1527 1525 1511 1500 1501 1496 1495 1494 1494 1498 1500 1502 1513 1505 1503 1504 1504 1505 1505 1506 1508 1509 1512 1513 1514 1513 1513 1512 1511 1511 1512 1513 1514 1514 1514 1513 1513 1512 1511 1511 1511 1512 1512 1512
1523 1522 1520 1517 1530 1537 1528 1505 1508 1504 1498 1494 1492 1494 1496 1502 1501 1502 1505 1503 1503 1504 1504 1505 1506 1507 1509 1510 1511 1511 1512 1511 1511 1511 1511 1512 1512 1513 1514 1513 1513 1512 1512 1511 1510 1511 1510 1510 1511
1522 1522 1522 1522 1528 1533 1523 1502 1500 1499 1496 1494 1495 1495 1497 1502 1502 1502 1503 1503 1503 1503 1504 1504 1505 1506 1507 1509 1510 1510 1510 1510 1509 1509 1510 1511 1512 1513 1513 1513 1513 1512 1511 1510 1509 1509 1509 1509 1509
1522 1521 1521 1525 1526 1512 1509 1503 1497 1497 1496 1496 1496 1499 1502 1502 1501 1501 1502 1503 1502 1503 1504 1504 1505 1505 1506 1508 1508 1509 1508 1508 1508 1508 1509 1510 1512 1513 1513 1512 1512 1512 1511 1510 1509 1509 1508 1508 1508
1521 1521 1525 1526 1522 1509 1502 1496 1496 1497 1498 1497 1497 1500 1502 1502 1502 1502 1501 1502 1502 1503 1503 1504 1504 1505 1505 1506 1507 1508 1508 1508 1507 1507 1508 1509 1510 1512 1512 1512 1512 1511 1510 1509 1509 1508 1507 1507 1506
1520 1518 1529 1531 1520 1504 1500 1494 1494 1495 1497 1498 1498 1499 1503 1502 1503 1502 1502 1502 1502 1503 1503 1504 1504 1504 1505 1505 1506 1507 1508 1507 1507 1507 1507 1508 1509 1510 1511 1511 1511 1511 1510 1509 1509 1508 1508 1507 1506
1517 1520 1524 1520 1517 1507 1501 1496 1493 1495 1498 1500 1499 1500 1503 1502 1501 1501 1502 1502 1502 1502 1504 1503 1504 1504 1505 1505 1505 1506 1507 1507 1507 1506 1507 1508 1509 1509 1509 1510 1510 1510 1509 1509 1509 1508 1508 1507 1506
1515 1515 1516 1515 1514 1508 1497 1496 1494 1494 1497 1498 1498 1499 1501 1499 1499 1500 1500 1502 1501 1501 1502 1503 1503 1504 1504 1505 1505 1505 1506 1507 1507 1506 1506 1507 1508 1509 1509 1509 1510 1510 1509 1509 1508 1508 1507 1507 1506
1510 1516 1512 1508 1508 1500 1494 1497 1493 1493 1494 1496 1497 1496 1497 1496 1497 1498 1499 1499 1499 1500 1499 1501 1502 1503 1504 1504 1504 1505 1506 1507 1507 1507 1507 1507 1507 1508 1509 1508 1509 1508 1508 1508 1507 1507 1506 1506 1505
1505 1507 1502 1498 1499 1499 1494 1495 1492 1492 1493 1496 1495 1496 1495 1497 1497 1496 1496 1497 1496 1497 1498 1498 1500 1501 1502 1502 1503 1503 1505 1506 1507 1506 1506 1507 1507 1507 1507 1507 1508 1507 1507 1507 1506 1506 1505 1504 1503
1498 1498 1497 1496 1496 1494 1493 1492 1490 1490 1493 1493 1494 1494 1496 1497 1496 1496 1494 1493 1493 1493 1495 1496 1496 1499 1500 1500 1501 1502 1504 1505 1506 1506 1506 1506 1507 1507 1507 1507 1507 1507 1506 1505 1504 1503 1503 1502 1501
1499 1494 1496 1495 1493 1491 1491 1489 1486 1487 1487 1489 1491 1491 1491 1491 1492 1493 1492 1491 1491 1491 1491 1493 1495 1497 1498 1499 1500 1501 1502 1503 1505 1505 1505 1505 1507 1507 1507 1506 1506 1505 1504 1503 1503 1502 1501 1500 1499
1492 1492 1490 1489 1488 1485 1486 1485 1485 1481 1483 1486 1487 1488 1487 1486 1487 1488 1488 1489 1489 1488 1488 1489 1491 1494 1496 1497 1498 1499 1500 1502 1505 1505 1505 1505 1505 1505 1505 1505 1504 1504 1502 1501 1501 1500 1498 1497 1495
1488 1486 1483 1482 1482 1482 1482 1479 1480 1478 1480 1483 1484 1482 1482 1482 1481 1482 1483 1485 1486 1486 1486 1487 1488 1491 1493 1495 1497 1499 1500 1502 1503 1503 1504 1504 1504 1504 1504 1503 1503 1502 1501 1500 1498 1496 1494 1492 1491
1485 1483 1478 1476 1478 1479 1481 1475 1471 1473 1477 1478 1477 1476 1477 1476 1476 1477 1478 1479 1481 1483 1484 1484 1485 1487 1489 1492 1495 1498 1499 1501 1502 1502 1502 1502 1501 1501 1501 1501 1501 1500 1498 1497 1496 1494 1492 1490 1488
1487 1482 1481 1475 1476 1474 1479 1475 1470 1470 1472 1472 1471 1470 1472 1471 1471 1472 1473 1474 1477 1479 1480 1481 1483 1483 1485 1490 1493 1496 1497 1498 1499 1499 1500 1500 1499 1499 1499 1499 1499 1497 1496 1495 1493 1491 1489 1486 1483
1489 1488 1485 1480 1473 1474 1472 1469 1467 1468 1469 1466 1465 1462 1465 1466 1467 1467 1468 1469 1472 1474 1476 1478 1479 1482 1484 1487 1489 1491 1493 1495 1497 1498 1498 1498 1497 1497 1497 1497 1497 1495 1494 1493 1491 1488 1485 1482 1479
1486 1487 1483 1479 1469 1472 1471 1465 1462 1461 1459 1459 1459 1459 1459 1461 1462 1464 1465 1467 1470 1471 1472 1473 1474 1476 1479 1482 1485 1489 1491 1493 1495 1497 1497 1497 1496 1496 1497 1497 1496 1494 1492 1490 1487 1485 1482 1478 1474
1485 1485 1483 1471 1468 1468 1463 1461 1454 1455 1455 1453 1453 1453 1455 1457 1459 1461 1463 1466 1468 1469 1471 1472 1473 1475 1477 1479 1483 1486 1489 1492 1494 1494 1496 1496 1496 1496 1496 1495 1494 1492 1490 1487 1484 1481 1478 1475 1470
1485 1487 1477 1471 1467 1467 1459 1454 1446 1447 1447 1445 1445 1448 1452 1454 1456 1458 1461 1465 1466 1468 1469 1470 1472 1474 1477 1480 1483 1485 1488 1491 1494 1494 1495 1496 1496 1495 1494 1493 1491 1490 1487 1484 1481 1477 1475 1473 1468
1479 1481 1476 1477 1468 1461 1464 1453 1443 1439 1439 1437 1438 1441 1445 1446 1450 1454 1457 1462 1465 1467 1469 1470 1472 1475 1476 1479 1482 1484 1486 1490 1493 1494 1495 1495 1494 1493 1492 1491 1489 1487 1484 1481 1478 1475 1472 1469 1468
1477 1471 1473 1472 1478 1469 1457 1454 1438 1433 1432 1429 1430 1433 1438 1443 1447 1449 1451 1458 1463 1466 1468 1471 1474 1475 1477 1479 1481 1483 1486 1489 1491 1493 1494 1493 1492 1491 1490 1489 1486 1484 1481 1478 1476 1473 1470 1467 1465
1466 1472 1472 1472 1473 1475 1463 1463 1435 1422 1423 1420 1420 1425 1429 1435 1439 1443 1447 1455 1459 1464 1466 1470 1472 1474 1476 1478 1481 1483 1486 1488 1490 1491 1492 1491 1491 1490 1488 1486 1483 1480 1478 1476 1473 1471 1468 1466 1463
1466 1472 1473 1471 1471 1467 1456 1457 1430 1419 1409 1405 1410 1420 1424 1431 1437 1441 1445 1452 1457 1462 1465 1469 1471 1473 1475 1478 1480 1483 1485 1486 1488 1490 1490 1489 1488 1487 1485 1483 1480 1477 1475 1473 1470 1468 1466 1463 1461
1468 1475 1480 1471 1470 1451 1437 1451 1431 1398 1396 1392 1401 1411 1420 1427 1432 1436 1441 1449 1456 1460 1463 1467 1470 1472 1475 1478 1480 1483 1485 1486 1488 1488 1488 1487 1486 1485 1482 1480 1477 1475 1472 1470 1468 1465 1462 1459 1456
1459 1465 1463 1463 1443 1429 1434 1438 1416 1393 1386 1384 1393 1403 1414 1423 1429 1434 1440 1447 1454 1459 1462 1465 1468 1471 1474 1478 1480 1482 1483 1485 1486 1486 1486 1485 1484 1482 1480 1477 1475 1472 1470 1467 1464 1461 1458 1454 1451
1450 1454 1443 1449 1440 1434 1432 1414 1397 1392 1391 1391 1399 1406 1414 1420 1426 1431 1439 1446 1452 1457 1460 1464 1467 1470 1473 1477 1479 1480 1482 1483 1484 1484 1484 1483 1482 1480 1477 1475 1472 1470 1467 1464 1460 1456 1453 1449 1445
1436 1435 1451 1450 1433 1426 1423 1409 1403 1396 1395 1395 1401 1405 1413 1419 1425 1431 1438 1444 1451 1456 1459 1463 1466 1469 1472 1475 1477 1479 1480 1481 1482 1482 1481 1480 1479 1476 1474 1472 1469 1467 1463 1459 1455 1451 1448 1444 1440
1429 1435 1427 1435 1436 1413 1416 1403 1382 1384 1387 1393 1398 1403 1408 1415 1422 1429 1436 1443 1450 1455 1458 1461 1464 1467 1470 1473 1475 1477 1478 1479 1480 1480 1479 1477 1475 1473 1471 1468 1466 1462 1459 1455 1450 1446 1442 1438 1434
1409 1419 1420 1427 1412 1396 1396 1401 1379 1381 1384 1389 1396 1402 1408 1414 1422 1429 1435 1441 1448 1452 1456 1459 1462 1465 1468 1472 1473 1474 1476 1477 1477 1477 1475 1474 1472 1469 1467 1465 1462 1458 1454 1450 1445 1440 1436 1432 1427